GW1942 Weather Reports


time (UTC)temp
F
wind
direction
speed
knots
gust
knots
rain 1hr
in
rain 24hr
in
rain mn
in
humidity
%
barometer
mb
20260831193144 78 161 0.9 2.6 0.00 0.00 0.00 29 1014.3
20260831191539 76 161 0.9 2.6 0.00 0.00 0.00 30 1014.6
20260831190040 75 161 0.9 4.3 0.00 0.00 0.00 31 1014.9
20260831184534 74 161 0.0 2.6 0.00 0.00 0.00 32 1015.3
20260831183030 72 161 0.9 2.6 0.00 0.00 0.00 34 1015.7
20260831181531 71 161 0.9 4.3 0.00 0.00 0.00 34 1015.7
20260831180024 70 161 0.9 2.6 0.00 0.00 0.00 36 1016.0
20260831174521 67 161 0.9 3.5 0.00 0.00 0.00 39 1016.4
20260831173020 67 161 1.7 3.5 0.00 0.00 0.00 39 1016.6
20260831171518 65 161 0.9 1.7 0.00 0.00 0.00 41 1016.7
20260831170016 64 161 0.0 2.6 0.00 0.00 0.00 43 1016.9
20260831164518 64 161 0.0 0.9 0.00 0.00 0.00 44 1017.1
20260831163017 62 161 0.0 0.9 0.00 0.00 0.00 47 1017.4
20260831161511 60 161 0.0 1.7 0.00 0.00 0.00 48 1017.5
20260831160008 60 161 0.0 0.0 0.00 0.00 0.00 48 1017.5
20260831154505 59 161 0.0 0.0 0.00 0.00 0.00 50 1017.7
20260831153100 57 161 0.0 0.0 0.00 0.00 0.00 53 1017.8
20260831153001 57 161 0.0 0.0 0.00 0.00 0.00 52 1017.8
20260831151559 55 161 0.0 0.0 0.00 0.00 0.00 56 1017.8
20260831150058 55 161 0.0 1.7 0.00 0.00 0.00 57 1018.0
20260831144557 53 161 0.0 1.7 0.00 0.00 0.00 60 1017.8
20260831143057 53 161 0.0 0.9 0.00 0.00 0.00 62 1017.8
20260831141605 50 161 0.0 2.6 0.00 0.00 0.00 66 1017.7
20260831140054 47 161 0.0 0.0 0.00 0.00 0.00 72 1017.6
20260831134554 44 161 0.0 0.0 0.00 0.00 0.00 77 1017.4
20260831133050 40 161 0.0 0.0 0.00 0.00 0.00 83 1017.4
20260831131550 39 161 0.0 0.0 0.00 0.00 0.00 82 1017.2
20260831130045 40 161 0.0 0.0 0.00 0.00 0.00 81 1017.1
20260831124543 41 161 0.0 0.9 0.00 0.00 0.00 79 1016.9
20260831123041 42 161 0.0 1.7 0.00 0.00 0.00 80 1016.8
20260831121539 41 161 0.0 0.0 0.00 0.00 0.00 80 1016.9
20260831120038 42 161 0.0 1.7 0.00 0.00 0.00 79 1016.7
20260831114536 42 161 0.0 0.0 0.00 0.00 0.00 80 1016.6
20260831113038 42 161 0.0 0.0 0.00 0.00 0.00 79 1016.5
20260831111531 42 161 0.0 0.0 0.00 0.00 0.00 78 1016.5
20260831110027 43 161 0.0 0.0 0.00 0.00 0.00 79 1016.4
20260831104532 44 161 0.0 1.7 0.00 0.00 0.00 78 1016.3
20260831103021 45 161 0.0 0.0 0.00 0.00 0.00 75 1016.1
20260831101519 46 161 0.0 0.0 0.00 0.00 0.00 75 1015.8
20260831100014 47 161 0.0 0.0 0.00 0.00 0.00 73 1015.7
20260831094510 48 161 0.0 0.0 0.00 0.00 0.00 70 1015.6
20260831093006 51 161 0.0 0.0 0.00 0.00 0.00 68 1015.7
20260831091505 53 161 0.0 0.0 0.00 0.00 0.00 63 1015.6
20260831090105 54 161 0.0 0.9 0.00 0.00 0.00 62 1015.6
20260831084607 54 161 0.0 0.9 0.00 0.00 0.00 62 1015.6
20260831083100 54 161 0.0 0.9 0.00 0.00 0.00 62 1015.6
20260831081558 54 161 0.0 0.0 0.00 0.00 0.00 62 1015.6
20260831080057 54 161 0.0 0.9 0.00 0.00 0.00 63 1015.5
20260831074556 54 161 0.0 0.0 0.00 0.00 0.00 62 1015.4
20260831073054 54 161 0.0 0.0 0.00 0.00 0.00 61 1015.6
20260831071555 55 161 0.0 0.0 0.00 0.00 0.00 58 1015.3
20260831070103 55 161 0.0 0.9 0.00 0.00 0.00 60 1015.3
20260831064548 55 161 0.0 1.7 0.00 0.00 0.00 57 1015.4
20260831063051 55 161 0.0 0.0 0.00 0.00 0.00 59 1015.5
20260831061546 56 161 0.0 0.0 0.00 0.00 0.00 58 1015.5
20260831060042 56 161 0.0 0.9 0.00 0.00 0.00 57 1015.5
20260831054545 56 161 0.0 0.0 0.00 0.00 0.00 56 1015.5
20260831053055 56 161 0.0 0.9 0.00 0.00 0.00 55 1015.5
20260831051544 56 161 0.0 0.9 0.00 0.00 0.00 56 1015.5
20260831050045 56 161 0.0 0.9 0.00 0.00 0.00 55 1015.5
20260831044540 57 161 0.0 2.6 0.00 0.00 0.00 54 1015.5
20260831043043 57 161 1.7 5.2 0.00 0.00 0.00 53 1015.6
20260831041540 57 161 3.5 7.8 0.00 0.00 0.00 53 1015.3
20260831040038 56 161 4.3 7.8 0.00 0.00 0.00 54 1015.3
20260831034541 57 161 3.5 7.8 0.00 0.00 0.00 54 1015.2
20260831033058 57 161 3.5 5.2 0.00 0.00 0.00 53 1015.1
20260831031536 58 161 2.6 6.1 0.00 0.00 0.00 52 1014.8
20260831030034 58 161 2.6 4.3 0.00 0.00 0.00 53 1014.5
20260831024534 58 161 0.0 1.7 0.00 0.00 0.00 53 1014.6
20260831023034 59 161 0.0 0.0 0.00 0.00 0.00 52 1014.4
20260831021533 60 161 0.0 0.0 0.00 0.00 0.00 52 1014.3
20260831020032 62 161 0.0 0.9 0.00 0.00 0.00 48 1014.3
20260831014532 65 161 0.0 0.9 0.00 0.00 0.00 42 1014.3
20260831013032 66 161 0.0 1.7 0.00 0.00 0.00 41 1014.3
20260831011541 67 161 0.0 3.5 0.00 0.00 0.00 39 1014.4
20260831010030 69 161 0.0 1.7 0.00 0.00 0.00 38 1014.5
20260831004530 68 161 0.0 2.6 0.00 0.00 0.00 38 1014.4
20260831003035 67 161 0.0 7.8 0.00 0.00 0.00 39 1014.5
20260831001529 67 161 0.9 3.5 0.00 0.00 0.00 39 1014.4
20260831000035 66 161 0.9 3.5 0.00 0.00 0.00 41 1014.4
20260830234536 65 161 1.7 4.3 0.00 0.00 0.00 44 1014.5
20260830233027 65 161 0.9 4.3 0.00 0.00 0.00 44 1014.8
20260830231527 65 161 1.7 5.2 0.00 0.00 0.00 43 1014.9
20260830230025 66 161 0.9 3.5 0.00 0.00 0.00 41 1014.9
20260830224525 68 161 0.0 4.3 0.00 0.00 0.00 38 1015.0
20260830223024 66 161 1.7 4.3 0.00 0.00 0.00 39 1015.2
20260830221535 65 161 0.9 4.3 0.00 0.00 0.00 42 1015.2
20260830220022 65 161 0.0 2.6 0.00 0.00 0.00 42 1015.3
20260830214522 65 161 0.0 4.3 0.00 0.00 0.00 41 1015.4
20260830213021 66 161 0.9 10.4 0.00 0.00 0.00 39 1015.4
20260830211520 69 161 0.9 7.8 0.00 0.00 0.00 38 1015.4
20260830210016 67 161 0.9 8.7 0.00 0.00 0.00 39 1015.3
20260830204518 66 161 1.7 7.8 0.00 0.00 0.00 40 1015.2
20260830203014 65 161 1.7 7.0 0.00 0.00 0.00 41 1015.0
20260830201513 66 161 0.0 5.2 0.00 0.00 0.00 40 1015.0
20260830200011 67 161 1.7 7.8 0.00 0.00 0.00 39 1014.9
20260830194509 65 161 2.6 9.6 0.00 0.00 0.00 39 1015.0